Quincy, IL

8:23 PM CDT on May 27, 2017 (GMT -0500)
Quincy Regional-Baldwin

Weather History for KUIN - June, 2013

Change the Weather History Date:

Tuesday, June 4, 2013

  Actual Average Record
Temperature  
Mean Temperature 63 °F 69 °F  
Max Temperature 73 °F 78 °F 98 °F (1934)
Min Temperature 53 °F 59 °F 42 °F (1950)
Degree Days  
Heating Degree Days 2 1  
Month to date heating degree days 12 6  
Since 1 June heating degree days 12 6  
Since 1 July heating degree days 5638 5572  
Cooling Degree Days 0 5  
Month to date cooling degree days 3 19  
Year to date cooling degree days 115 105  
Since 1 June cooling degree days 3 19  
Growing Degree Days 12 (Base 50)    
Moisture  
Dew Point 52 °F    
Average Humidity 68    
Maximum Humidity 83    
Minimum Humidity 53    
Precipitation  
Precipitation 0.00 in 0.15 in 2.04 in (1993)
Month to date precipitation T 0.60  
Year to date precipitation 25.24 14.69  
Sea Level Pressure  
Sea Level Pressure 30.04 in    
Wind  
Wind Speed 7 mph (SE)    
Max Wind Speed 16 mph    
Max Gust Speed 21 mph    
Visibility 10 miles    
Events      
T = Trace of Precipitation, MM = Missing Value Source: NWS Daily Summary

Daily Weather History Graph

Daily Weather History Graph

Search for Another Location

Airport or City:

Trip Planner

Search our weather history database for the weather conditions in past years. The results will help you decide how hot, cold, wet, or windy it might be!

Date:

Astronomy

Jun. 04, 2013 Rise Set
Actual Time 5:37 AM CDT 8:29 PM CDT
Civil Twilight 5:04 AM CDT 9:01 PM CDT
Nautical Twilight 4:24 AM CDT 9:42 PM CDT
Astronomical Twilight 3:37 AM CDT 10:29 PM CDT
Moon 3:06 AM CDT (6/4) 4:59 PM CDT (6/4)
Length of Visible Light 15h 57m
Length of Day
14h 52m
Waning Crescent, 14% of the Moon is Illuminated
Jun 4
Waning Crescent
Jun 8
New
Jun 16
First Quarter
Jun 23
Full
Jun 29
Last Quarter

Hourly Weather History & Observations

Time (CDT) Temp. Dew Point Humidity Pressure Visibility Wind Dir Wind Speed Gust Speed Precip Events Conditions
12:54 AM 57.0 °F 50.0 °F 77% 30.04 in 10.0 mi ESE 4.6 mph - N/A   Clear
1:54 AM 55.0 °F 50.0 °F 83% 30.04 in 10.0 mi SE 5.8 mph - N/A   Clear
2:54 AM 55.0 °F 50.0 °F 83% 30.05 in 10.0 mi ESE 5.8 mph - N/A   Clear
3:54 AM 53.1 °F 48.9 °F 86% 30.04 in 10.0 mi ESE 6.9 mph - N/A   Clear
4:54 AM 54.0 °F 48.9 °F 83% 30.05 in 10.0 mi ESE 5.8 mph - N/A   Clear
5:54 AM 53.1 °F 48.9 °F 86% 30.06 in 10.0 mi SE 5.8 mph - N/A   Clear
6:54 AM 55.0 °F 50.0 °F 83% 30.05 in 10.0 mi SE 9.2 mph - N/A   Clear
7:54 AM 59.0 °F 50.0 °F 72% 30.06 in 10.0 mi SE 9.2 mph - N/A   Clear
8:54 AM 64.0 °F 50.0 °F 60% 30.06 in 10.0 mi South 15.0 mph 20.7 mph N/A   Clear
9:54 AM 64.9 °F 50.0 °F 58% 30.07 in 10.0 mi SSE 9.2 mph - N/A   Clear
10:54 AM 66.0 °F 51.1 °F 59% 30.09 in 10.0 mi SSE 4.6 mph - N/A   Clear
11:54 AM 69.1 °F 53.1 °F 57% 30.10 in 10.0 mi North 5.8 mph - N/A   Mostly Cloudy
12:54 PM 71.1 °F 54.0 °F 55% 30.08 in 10.0 mi Variable 4.6 mph - N/A   Scattered Clouds
1:54 PM 72.0 °F 54.0 °F 53% 30.06 in 10.0 mi ENE 5.8 mph - N/A   Clear
2:54 PM 72.0 °F 55.0 °F 55% 30.04 in 10.0 mi ESE 10.4 mph - N/A   Clear
3:54 PM 71.1 °F 55.0 °F 57% 30.02 in 10.0 mi SE 12.7 mph - N/A   Clear
4:54 PM 72.0 °F 53.1 °F 51% 30.01 in 10.0 mi SE 11.5 mph - N/A   Partly Cloudy
5:54 PM 72.0 °F 53.1 °F 51% 30.01 in 10.0 mi SSE 8.1 mph - N/A   Partly Cloudy
6:54 PM 70.0 °F 54.0 °F 57% 29.99 in 10.0 mi East 8.1 mph - N/A   Clear
7:54 PM 69.1 °F 55.9 °F 63% 30.00 in 10.0 mi ESE 6.9 mph - N/A   Clear
8:54 PM 68.0 °F 55.0 °F 63% 30.01 in 10.0 mi South 5.8 mph - N/A   Clear
9:54 PM 64.9 °F 55.0 °F 70% 30.03 in 10.0 mi SSE 3.5 mph - N/A   Clear
10:54 PM 64.0 °F 55.0 °F 73% 30.04 in 10.0 mi Calm Calm - N/A   Clear
11:54 PM 63.0 °F 55.0 °F 75% 30.02 in 10.0 mi ESE 3.5 mph - N/A   Clear